Flag for Slovenia Weather past 2 weeks in Ljubljana, Slovenia

Now
60 °F

Light rain. Low clouds.


Feels Like: 60 °F
Forecast: 42 / 67 °F
Wind: 1 mph from South

Location: Ljubljana / Bezigrad

Current Time: Sep 22, 2014 at 12:15:21 PM

Latest Report: Sep 22, 2014 at 11:00 AM


Visibility: 4 mi

Pressure: 29.87 "Hg

Humidity: 95%

Dew point: 59 °F

Location of LjubljanaLocation

Historic Weather in Ljubljana — Graph

°F

Ljubljana temperature yesterday

Maximum temperature yesterday: 80 °F (at 3:00 PM)
Minimum temperature yesterday: 60 °F (at 8:00 AM)
Average temperature yesterday: 69 °F

Past Weeks' High & Low Weather Summary

 TemperatureHumidityPressure
High83 °F (Sep 9, 4:00 PM)100% (Sep 17, 9:00 AM)30.12 "Hg (Sep 17, 9:00 AM)
Low53 °F (Sep 17, 7:00 AM)44% (Sep 9, 5:00 PM)29.83 "Hg (Sep 22, 3:00 AM)
Average62 °F85%29.99 "Hg
* Reported Sep 7 11:00 AM — Sep 22 11:00 AM, Ljubljana, Weather by CustomWeather, © 2014

Note: Actual official high and low records may vary slightly from our data, if they occured in-between our weather recording intervals... More about our weather records

Advertising

Ljubljana weather history for previous 24 hours

 ConditionsComfort  
Time TempWeatherWind HumidityBarometerVisibility
11:00 AM
Sep 22
60 °FLight rain. Low clouds.1 mph95%29.87 "Hg4 mi
10:00 AM60 °FLight rain. Low clouds.1 mph94%29.88 "Hg3 mi
9:00 AM60 °FFog.No wind93%29.87 "Hg4 mi
8:00 AM59 °FFog.1 mph95%29.86 "Hg4 mi
7:00 AM60 °FFog.1 mph94%29.86 "Hg4 mi
6:00 AM60 °FFog.1 mph97%29.85 "Hg1 mi
5:00 AM62 °FCool.1 mph98%29.84 "HgN/A
4:00 AM61 °FCool.No wind96%29.83 "HgN/A
3:00 AM63 °FMild.1 mph95%29.83 "HgN/A
2:00 AM63 °FMild.1 mph93%29.85 "HgN/A
1:00 AM65 °FMild.1 mph80%29.84 "HgN/A
12:00 AM66 °FMild.1 mph79%29.84 "HgN/A
11:00 PM
Sep 21
67 °FMild.2 mph79%29.85 "HgN/A
10:00 PM67 °FPassing clouds.3 mph80%29.85 "Hg12 mi
9:00 PM68 °FPassing clouds.2 mph78%29.85 "Hg12 mi
8:00 PM69 °FPassing clouds.5 mph73%29.85 "Hg19 mi
7:00 PM71 °FScattered clouds.5 mph68%29.84 "Hg22 mi
6:00 PM74 °FPartly sunny.6 mph63%29.84 "Hg22 mi
5:00 PM78 °FScattered clouds.5 mph55%29.84 "Hg25 mi
4:00 PM80 °FScattered clouds.5 mph50%29.84 "Hg25 mi
3:00 PM80 °FScattered clouds.2 mph51%29.86 "Hg19 mi
2:00 PM79 °FScattered clouds.3 mph50%29.89 "Hg16 mi
1:00 PM78 °FScattered clouds.3 mph55%29.91 "Hg14 mi
12:00 PM73 °FScattered clouds.2 mph71%29.94 "Hg16 mi
Weather by CustomWeather, © 2014

See weather overviewHow to use our weather pages